Погода в Кленовском

Россия / Свердловская область     56°49′18″N   58°37′13″E
темп.,
°C
ветер,
м/с
пор.,
м/с
влажн.,
%
обл.,
%
осадки,
мм/ч
давл.,
гПа
погр.,
м
17 сентября, пт
пт1723:00+3з51098100 1.2 10011086
02:00+2зсз5995100 0.4 10021036
05:00+3зсз4997100 0.5 1002823
08:00+4сз4998100 0.1 1003785
11:00+5сз2696100 0.4 1004919
14:00+5сз3795100 0.3 1006872
17:00+5зсз4794100 0.6 1007927
20:00+4зсз3698100 1.0 1009864
18 сентября, сб
сб1823:00+4сз3598100 2.1 1009785
02:00+3сз2697100 0.3 1010395
05:00+1зсз2799100 0.3 1010336
08:00+2зсз3794100 0.0 1010478
11:00+3сз4894100 0.3 1010783
14:00+4сз5885100 0.6 10111007
17:00+3зсз5109096 1.3 10111058
20:00+2зсз5118989 0.4 1012920
19 сентября, вс
вс1923:00+1зсз51296100 0.5 1012943
02:00+1зсз61297100 0.3 10111048
05:00+1зсз61297100 0.7 10121101
08:00+1зсз61297100 0.3 10131032
11:00+1сз61191100 0.5 10151065
14:00+3сз61179100 0.2 10161234
17:00+3сз61175100 0.3 10191166
20:00+2сз4972100 0.0 10201156
20 сентября, пн
пн2023:00+2сз4869100 0.0 10211139
02:00+1сз3775100 0.0 1022770
05:00+1сз3672100 0.0 1024715
08:00+1зсз2670100 0.0 1025698
11:00+4ссз2359100 0.0 10271227
14:00+4ссз1261100 0.0 10271057
17:00+4ссз1266100 0.0 1028464
20:00+3св1176100 0.0 102916
21 сентября, вт
вт2123:00+3вюв1174100 0.0 103021
02:00+2в1177100 0.0 103126
05:00+2в118296 0.0 103026
08:00+1вюв11847 0.0 103034
11:00+6в22565 0.0 1029873
14:00+10вюв01475 0.0 10271074
17:00+10ссв00491 0.0 1025994
20:00+4всв00750 0.0 102610